SAS4733 ENGM-LDSP

Flight info

Callsign SAS4733
Flight time N/A
Altitude 37000
Route VIPPA1A VIPPA DCT ESOSI DCT SONAL DCT POGAB DCT HDO DCT PISAM DCT PETOV DCT NUPSO NUPSO1Z
Aircraft A320/M-SDE3FGHIJ1RWXYZ/ALB1

Departure

Time N/A
Airport Oslo-Gardermoen International Airport (ENGM)

Arrival

Time 2026-04-30 17:53
Airport Split Saint Jerome Airport (LDSP)
Time Latitude Longitude Altitude Speed Heading
2026-04-30 14:55 60.19670 11.09979 680 ft 0 kts 106°
2026-04-30 15:12 60.19675 11.09945 683 ft 4 kts 106°
2026-04-30 15:13 60.19682 11.09892 680 ft 0 kts 106°
2026-04-30 15:16 60.19885 11.09868 683 ft 17 kts 16°
2026-04-30 15:17 60.19880 11.10624 682 ft 20 kts 107°
2026-04-30 15:18 60.19912 11.11566 685 ft 10 kts 17°
2026-04-30 15:19 60.20015 11.11627 683 ft 0 kts 15°
2026-04-30 17:39 43.94691 16.01991 13869 ft 327 kts 194°
2026-04-30 17:41 43.78046 15.96647 11096 ft 275 kts 183°
2026-04-30 17:42 43.74222 15.96350 10141 ft 270 kts 183°
2026-04-30 17:42 43.69412 15.93173 9035 ft 261 kts 225°
2026-04-30 17:43 43.66747 15.89837 8437 ft 260 kts 215°
2026-04-30 17:44 43.61604 15.89674 7436 ft 253 kts 164°
2026-04-30 17:44 43.56581 15.91537 6021 ft 244 kts 164°
2026-04-30 17:46 43.49000 15.94423 4620 ft 214 kts 150°
2026-04-30 17:47 43.44329 15.99147 3414 ft 206 kts 138°
2026-04-30 17:48 43.42535 16.05280 2803 ft 184 kts 68°
2026-04-30 17:48 43.43854 16.10213 2797 ft 175 kts 68°
2026-04-30 17:49 43.46077 16.15774 2409 ft 163 kts 53°
2026-04-30 17:50 43.48682 16.20448 1551 ft 139 kts 53°
2026-04-30 17:51 43.50347 16.23409 1124 ft 117 kts 50°
2026-04-30 17:52 43.51961 16.26301 585 ft 139 kts 51°
2026-04-30 17:53 43.54011 16.30006 64 ft 27 kts 54°
2026-04-30 17:54 43.53862 16.29981 61 ft 7 kts 232°
2026-04-30 17:55 43.53795 16.30006 66 ft 0 kts 115°